Theta_e
311 313 315 318 322 326 325 327 330 328 325 322 320 318 318 316 315 313 311 309 306 305 305 304 302 302 300 299 299 297 296 296 293 293 293 294 294 295 297 299 301 300 302
312 316 319 321 322 322 326 325 324 321 320 319 318 318 317 314 312 310 308 306 304 303 303 302 302 302 298 297 297 295 295 295 294 290 291 293 293 295 296 296 298 301 301
314 316 319 322 323 323 325 324 321 319 318 318 319 315 313 310 307 306 304 303 302 302 302 301 301 300 298 296 295 295 294 295 292 291 290 292 293 294 294 296 296 297 299
312 313 320 320 321 319 318 318 318 318 318 314 311 309 308 306 304 303 302 301 301 302 303 302 300 299 297 297 296 294 293 291 291 290 291 290 291 294 298 297 295 293 293
311 314 318 320 320 318 317 317 316 315 311 309 307 306 304 304 303 301 301 300 300 300 300 303 302 305 306 302 296 292 291 290 290 289 289 288 295 295 294 297 296 291 291
309 314 318 317 316 315 314 312 311 310 308 307 305 303 301 302 301 302 300 298 298 298 297 298 302 306 305 304 303 301 295 290 288 288 287 287 288 293 296 293 296 290 287
309 314 316 313 310 310 309 308 306 306 305 304 303 303 301 300 299 299 300 298 297 297 297 298 300 303 302 299 300 301 301 300 297 289 288 288 289 295 295 293 294 295 288
308 312 310 309 306 306 305 305 304 304 303 302 302 301 299 298 297 297 299 297 296 296 296 296 298 297 298 296 295 294 295 295 295 295 291 291 291 293 292 296 296 294 291
306 309 307 306 305 304 302 301 301 300 299 298 298 297 296 296 297 297 297 296 295 295 297 296 297 296 297 297 295 296 297 297 302 301 299 298 296 297 299 296 295 290 288
309 307 306 306 304 301 300 299 299 298 296 296 295 296 297 296 296 296 296 296 294 294 295 295 297 295 294 295 294 296 295 296 297 298 295 296 296 297 300 295 294 289 287
307 306 305 303 301 300 299 298 296 296 295 295 295 296 296 296 295 295 296 296 294 294 294 293 294 295 294 294 295 296 295 297 298 297 294 294 294 295 296 296 294 291 291
305 303 301 300 300 299 297 297 297 296 294 294 294 295 296 294 296 295 295 295 296 293 292 293 295 293 293 293 295 293 294 297 297 294 292 291 291 292 293 297 298 298 296
301 298 297 297 297 298 297 296 296 296 295 295 294 292 292 294 295 295 294 295 296 295 296 296 294 294 294 295 294 294 295 296 293 291 290 290 291 292 295 297 298 296 296
296 296 296 295 295 296 297 297 297 296 295 294 292 291 293 294 295 295 296 296 296 297 297 297 296 296 296 297 297 297 296 295 293 290 289 290 292 294 297 296 296 294 293
295 295 295 295 295 295 295 294 294 294 293 292 292 293 294 293 293 294 294 293 293 294 296 296 295 296 296 296 296 295 296 293 292 292 291 294 293 294 295 297 296 294 293
294 295 294 295 295 295 292 289 291 291 291 291 291 292 292 292 293 292 292 291 291 293 293 291 290 291 291 292 293 294 294 293 291 291 291 292 294 295 296 297 297 295 294
294 295 295 295 294 292 291 289 287 291 293 292 292 293 292 292 291 291 291 291 291 293 291 290 290 291 290 289 288 288 288 290 291 291 293 293 294 295 295 296 297 295 294
296 295 295 294 292 292 291 289 291 294 293 292 292 292 291 291 291 291 291 292 290 290 288 288 289 289 288 287 287 287 289 291 292 293 294 295 294 294 296 296 296 295 294
295 294 294 293 292 292 290 290 293 292 291 291 292 291 291 290 290 289 289 288 287 286 286 286 285 285 285 286 286 287 288 289 291 293 295 295 295 295 295 296 296 292 292
294 294 293 291 290 289 290 290 293 293 292 290 289 288 289 289 287 286 286 286 285 284 284 284 284 284 284 284 285 286 289 289 290 293 294 295 296 297 297 297 296 294 293
294 291 291 291 290 290 291 292 291 289 288 287 286 286 285 286 284 284 284 284 283 283 283 283 282 283 283 284 284 286 287 288 289 291 293 294 296 296 296 296 296 295 293
291 291 291 290 291 291 291 290 290 289 288 286 286 286 285 285 284 284 283 283 282 282 282 282 281 281 282 282 282 284 285 286 287 290 292 294 296 296 296 295 294 294 294
291 291 291 290 291 290 290 290 289 288 287 287 286 286 285 284 284 283 283 282 282 282 282 281 282 281 282 283 283 283 284 284 285 289 291 293 294 294 294 293 293 293 292
292 291 291 291 290 290 290 289 288 287 287 286 286 285 284 284 283 283 282 282 282 282 282 283 282 282 282 283 283 284 284 285 287 289 292 293 293 292 292 292 292 292 292
292 291 290 290 290 289 289 289 288 288 287 287 286 285 284 284 283 283 281 281 280 282 282 282 281 282 283 283 284 285 284 285 287 287 291 292 292 292 292 291 291 291 291
291 291 291 290 290 290 289 288 288 288 287 286 285 284 283 282 281 281 280 280 281 281 281 281 282 283 283 283 284 284 285 285 286 286 291 292 291 290 291 291 290 290 289
Wind_Speed
8 7 7 6 5 2 3 1 2 2 3 5 6 8 10 12 14 13 13 11 15 12 6 9 8 4 4 3 3 4 3 3 4 2 1 2 3 5 7 6 6 5 5
6 7 7 6 5 1 1 2 4 5 7 7 8 9 12 14 14 15 14 11 13 10 8 9 6 5 6 5 4 5 3 4 4 3 1 3 2 4 4 6 5 5 4
5 7 8 8 6 4 3 4 7 8 9 10 9 12 15 14 15 14 15 14 12 11 6 6 6 7 6 5 4 5 4 4 4 4 1 2 2 2 4 5 5 5 4
6 7 8 7 4 5 6 6 7 8 11 12 12 12 15 16 14 14 14 16 14 10 8 6 8 8 5 5 5 5 4 4 4 3 3 2 2 4 4 8 8 3 3
7 7 6 5 4 6 7 6 7 10 12 14 15 14 14 15 9 14 12 13 14 12 9 5 6 8 13 9 4 4 4 3 3 4 3 2 4 5 7 4 6 3 3
6 5 4 5 5 6 8 9 10 11 11 12 13 15 14 9 17 18 14 12 12 11 8 7 4 12 13 15 14 10 6 4 3 2 2 2 3 3 4 4 5 4 4
5 2 6 6 7 6 9 11 10 10 11 13 13 13 15 11 16 15 15 10 10 8 8 6 7 6 9 7 10 11 10 10 7 3 1 1 3 2 4 5 4 4 3
6 3 7 7 8 7 10 11 10 10 12 11 13 12 11 9 12 14 16 11 11 9 7 7 10 8 7 6 6 5 5 5 3 0 3 4 4 5 5 3 2 5 4
3 5 7 9 9 8 10 10 10 11 12 11 11 12 12 10 13 13 12 9 11 9 8 7 10 8 7 7 4 3 3 4 2 4 4 5 6 6 5 4 7 5 4
6 7 8 9 10 10 11 11 11 12 13 11 13 12 15 9 8 8 10 5 12 9 9 10 16 11 9 6 5 3 3 3 4 5 5 4 5 5 10 6 4 4 3
7 9 9 10 11 12 13 12 13 14 15 12 12 8 9 7 5 10 12 7 8 9 7 7 6 12 10 8 6 2 2 3 4 3 3 4 5 5 5 4 5 3 6
8 10 11 11 10 11 15 13 13 14 14 10 7 7 4 4 9 15 15 12 14 9 7 5 6 11 9 8 4 5 5 3 3 4 4 5 4 4 4 3 2 3 3
11 12 13 14 12 13 14 14 12 10 9 8 6 5 5 5 7 16 9 13 13 9 5 6 8 8 6 4 9 6 5 3 3 5 5 4 4 5 4 3 4 6 6
14 14 14 15 14 13 10 9 9 8 6 6 5 6 6 7 6 3 5 7 9 8 6 5 4 4 6 5 3 5 4 3 3 2 2 3 2 3 5 4 5 4 5
14 14 14 13 16 15 12 8 8 5 2 5 7 6 7 6 2 5 5 3 4 6 8 7 7 7 7 6 6 7 6 6 6 3 4 4 4 4 4 5 5 4 5
15 12 12 12 12 12 12 9 14 6 13 13 12 8 6 8 10 11 11 14 12 9 8 6 6 5 7 6 7 6 6 7 5 4 5 4 4 4 4 6 6 5 6
17 15 13 14 13 12 9 9 10 11 19 16 18 16 11 11 14 13 11 15 14 12 6 6 5 7 6 6 5 5 4 5 4 5 4 5 4 5 5 6 6 7 8
16 21 14 12 12 10 10 7 7 11 10 9 13 10 12 14 12 12 14 16 9 8 6 6 7 7 5 5 5 5 5 6 5 5 5 4 5 4 6 6 6 6 7
15 13 14 12 8 12 9 9 9 10 10 8 8 9 14 16 18 18 17 6 6 7 6 7 4 5 5 4 5 5 5 4 4 5 5 5 5 4 5 5 6 9 8
15 26 16 9 11 11 9 10 11 10 9 6 6 5 5 10 9 7 6 7 7 5 5 5 5 4 5 5 5 5 5 6 6 6 6 6 6 6 6 7 6 6 6
14 10 14 12 11 11 11 11 10 9 8 7 6 6 10 10 6 5 6 6 5 5 5 4 4 5 5 5 5 5 5 5 5 5 6 6 6 7 7 7 6 6 6
10 11 12 12 11 11 11 11 10 10 10 10 7 8 12 7 6 6 6 6 4 4 4 4 4 4 4 4 4 5 5 5 6 5 6 6 7 7 7 7 7 7 6
11 14 12 11 12 14 13 11 10 10 9 8 8 8 8 6 7 6 5 4 4 5 4 1 5 5 4 4 4 4 5 5 4 4 6 6 7 7 7 7 7 8 8
13 15 15 12 11 12 11 11 10 10 9 8 8 8 7 6 6 6 5 4 5 3 3 6 5 6 6 5 5 5 5 4 4 6 7 7 7 8 7 8 8 9 7
14 13 14 13 12 11 11 10 9 8 8 8 8 8 7 7 6 5 5 4 3 5 7 6 5 7 8 10 10 10 9 10 9 7 7 8 10 11 9 8 9 9 10
12 13 13 11 11 10 10 9 9 8 8 8 8 6 6 5 5 5 3 4 5 7 8 6 7 10 10 8 10 11 11 11 10 10 8 9 9 8 8 10 12 9 10
Wind_Direction
0 349 347 340 324 151 189 207 233 102 109 94 113 117 117 118 114 105 103 101 107 94 83 85 76 65 57 23 38 48 61 101 112 2 346 304 306 359 343 323 322 306 330
356 356 352 348 334 141 136 101 74 80 81 90 99 111 106 99 96 100 103 103 90 103 104 101 96 89 75 50 45 47 57 55 111 127 297 296 17 353 318 315 326 335 333
22 19 10 4 359 7 62 94 113 108 99 101 108 113 106 105 107 109 107 113 107 82 69 82 91 86 68 60 55 56 43 50 70 104 327 343 315 351 325 320 311 322 355
14 17 17 359 22 46 54 63 96 104 104 92 94 103 108 107 104 111 110 104 88 86 77 69 72 74 89 88 76 79 68 75 63 74 53 5 302 303 332 353 344 325 331
23 20 27 19 52 80 76 72 83 93 101 107 106 100 99 104 112 112 107 101 104 95 72 67 91 105 88 81 88 78 94 80 81 64 51 4 15 6 355 317 341 306 307
20 24 62 49 60 76 87 81 90 93 95 100 102 103 102 101 117 112 109 97 96 99 115 94 83 92 83 74 72 93 105 107 75 70 19 321 330 298 329 330 344 355 339
360 25 102 101 80 78 88 88 88 89 97 99 102 107 109 120 117 109 100 99 111 102 101 118 112 98 87 68 68 64 64 72 81 129 155 286 298 299 303 314 339 343 271
352 101 110 108 100 100 101 101 95 97 97 97 98 99 103 96 87 95 100 95 91 84 84 105 113 101 103 101 74 61 45 44 63 150 225 261 250 279 247 255 283 304 287
320 116 122 123 121 110 99 97 97 96 86 81 81 82 84 85 81 88 90 97 85 79 74 86 93 97 86 98 87 59 37 14 323 316 309 329 313 305 10 11 9 8 342
136 130 123 123 116 109 104 95 94 91 90 87 84 78 95 98 76 78 93 114 93 80 68 64 71 78 70 74 86 50 55 7 344 337 345 353 353 19 48 56 3 28 337
126 122 116 110 109 107 101 97 102 99 94 92 93 89 85 84 79 75 72 87 94 81 67 64 60 73 60 55 59 57 38 329 333 325 330 3 12 29 22 30 44 50 29
130 114 105 102 100 100 102 99 95 99 97 100 89 88 62 64 86 73 65 65 75 89 80 60 66 73 67 57 51 46 31 349 317 17 24 14 5 2 350 330 1 17 80
115 105 101 97 94 96 102 106 108 107 112 95 75 69 75 63 70 69 80 78 78 80 83 93 82 63 41 45 41 32 18 16 19 37 16 357 333 308 324 12 348 40 47
114 109 106 101 95 90 92 95 96 96 105 109 113 100 96 81 75 73 69 76 64 77 73 63 71 78 58 50 32 26 20 18 24 32 357 322 319 15 36 28 37 7 45
113 110 106 101 102 98 85 76 81 44 297 118 108 107 105 92 56 93 94 85 65 56 62 53 44 41 39 29 37 29 23 20 30 5 36 36 31 24 24 36 41 39 49
114 112 114 112 107 107 99 75 49 73 80 83 81 93 47 92 101 90 65 54 50 66 57 48 41 45 42 28 29 26 29 19 9 12 32 39 40 33 28 33 38 43 33
120 121 115 113 112 112 106 110 108 66 67 77 82 83 92 112 89 84 93 73 52 64 64 46 34 42 22 24 21 17 10 351 338 26 46 25 17 26 39 40 41 49 53
117 120 115 112 111 114 109 108 107 104 101 82 48 81 83 77 76 70 66 58 48 36 51 51 42 36 22 16 14 11 5 10 17 21 25 21 22 32 54 49 40 49 49
118 113 113 111 115 110 103 102 104 97 92 95 97 69 78 74 65 58 58 71 79 52 41 45 17 24 21 11 10 15 21 10 7 24 21 22 18 40 51 50 56 47 49
107 120 116 116 109 103 104 106 103 97 92 91 86 84 68 66 60 50 43 57 58 43 39 40 10 12 20 18 10 14 29 24 16 22 25 26 25 35 45 51 47 54 45
112 116 117 107 107 111 110 106 102 96 93 83 63 68 78 85 77 59 63 50 48 41 28 25 29 21 3 6 8 27 32 23 16 13 31 30 36 45 42 48 47 49 45
118 119 112 111 108 106 104 102 102 101 99 96 91 73 79 75 77 73 57 51 25 34 28 26 32 40 15 17 7 20 33 29 15 7 28 34 41 48 50 48 43 42 44
118 115 109 104 106 105 100 102 104 105 103 102 101 93 84 80 75 71 59 38 34 32 348 302 53 28 358 18 32 37 39 17 347 351 40 40 42 45 47 49 46 49 45
118 113 115 111 106 103 103 103 101 95 102 99 96 90 86 93 83 65 51 35 41 348 337 47 36 31 15 14 21 29 28 14 21 27 40 53 49 44 45 46 46 46 47
118 115 112 111 107 107 108 104 101 103 104 104 99 98 102 89 80 65 38 36 36 50 41 32 24 23 27 24 33 33 25 33 38 32 43 50 56 52 55 54 50 49 47
114 111 111 110 111 113 110 109 108 107 107 104 99 88 90 91 84 76 43 32 56 54 45 27 16 26 30 28 32 35 34 33 34 34 48 54 52 44 48 52 55 56 52